Time,TemperatureF,DewpointF,PressureIn,WindDirection,WindDirectionDegrees,WindSpeedMPH,WindSpeedGustMPH,Humidity,HourlyPrecipIn,Conditions,Clouds,dailyrainin,SolarRadiationWatts/m^2,SoftwareType,DateUTC
2013-09-16 00:00:00,55.4,53.4,29.91,SE,128,0.0,0.0,93,0.00,,OVC041,0.02,0.00,VWS V14.01,2013-09-16 04:00:00,
2013-09-16 00:01:00,55.4,53.4,29.92,SE,128,0.0,0.0,93,0.00,,OVC048,0.02,0.00,VWS V14.01,2013-09-16 04:01:00,
2013-09-16 00:02:00,55.4,53.4,29.92,SE,128,0.0,0.0,93,0.00,,OVC048,0.02,0.00,VWS V14.01,2013-09-16 04:02:00,
2013-09-16 00:07:00,55.4,53.4,29.92,SE,128,0.0,0.0,93,0.00,,OVC048,0.02,0.00,VWS V14.01,2013-09-16 04:07:00,
2013-09-16 00:12:00,55.3,53.3,29.92,SE,128,0.0,0.0,93,0.00,,OVC048,0.00,0.00,VWS V14.01,2013-09-16 04:12:00,
2013-09-16 00:17:00,55.3,53.3,29.92,SE,128,0.0,0.0,93,0.00,,OVC048,0.00,0.00,VWS V14.01,2013-09-16 04:17:00,
2013-09-16 00:22:00,55.3,53.3,29.92,SE,128,0.0,0.0,93,0.00,,OVC048,0.00,0.00,VWS V14.01,2013-09-16 04:22:00,
2013-09-16 00:27:00,55.3,53.3,29.92,SE,128,0.0,0.0,93,0.00,,OVC048,0.00,0.00,VWS V14.01,2013-09-16 04:27:00,
2013-09-16 00:30:00,55.4,53.4,29.92,SE,128,0.0,0.0,93,0.00,,OVC041,0.02,0.00,VWS V14.01,2013-09-16 04:30:00,
2013-09-16 00:32:00,55.3,53.3,29.92,SE,128,0.0,0.0,93,0.00,,OVC048,0.00,0.00,VWS V14.01,2013-09-16 04:32:00,
2013-09-16 00:37:00,55.3,53.3,29.92,SE,128,0.0,0.0,93,0.00,,OVC048,0.00,0.00,VWS V14.01,2013-09-16 04:37:00,
2013-09-16 00:42:00,55.3,53.6,29.93,SE,128,0.0,0.0,94,0.00,,OVC048,0.00,0.00,VWS V14.01,2013-09-16 04:42:00,
2013-09-16 00:47:00,55.3,53.6,29.93,SE,128,0.0,0.0,94,0.00,,OVC048,0.00,0.00,VWS V14.01,2013-09-16 04:47:00,
2013-09-16 00:52:00,55.3,53.6,29.93,SE,128,0.0,0.0,94,0.00,,OVC048,0.00,0.00,VWS V14.01,2013-09-16 04:52:00,
2013-09-16 00:57:00,55.3,53.6,29.93,SE,128,0.0,0.0,94,0.00,,OVC048,0.00,0.00,VWS V14.01,2013-09-16 04:57:00,
2013-09-16 01:00:00,55.3,53.3,29.92,SE,128,0.0,0.0,93,0.00,,OVC041,0.02,0.00,VWS V14.01,2013-09-16 05:00:00,
2013-09-16 01:02:00,55.1,53.4,29.93,SE,128,0.0,0.0,94,0.00,,OVC046,0.00,0.00,VWS V14.01,2013-09-16 05:02:00,
2013-09-16 01:07:00,55.1,53.4,29.93,SE,132,0.0,0.0,94,0.00,,OVC046,0.00,0.00,VWS V14.01,2013-09-16 05:07:00,
2013-09-16 01:12:00,55.1,53.4,29.93,SE,132,0.0,0.0,94,0.00,,OVC046,0.00,0.00,VWS V14.01,2013-09-16 05:12:00,
2013-09-16 01:17:00,55.1,53.4,29.93,SE,132,0.0,0.0,94,0.00,,OVC046,0.00,0.00,VWS V14.01,2013-09-16 05:17:00,
2013-09-16 01:22:00,55.1,53.4,29.93,SE,132,0.0,0.0,94,0.00,,OVC046,0.00,0.00,VWS V14.01,2013-09-16 05:22:00,
2013-09-16 01:27:00,55.0,53.3,29.94,SE,132,0.0,0.0,94,0.00,,OVC046,0.00,0.00,VWS V14.01,2013-09-16 05:27:00,
2013-09-16 01:30:00,55.3,53.6,29.93,SE,128,0.0,0.0,94,0.00,,OVC041,0.00,0.00,VWS V14.01,2013-09-16 05:30:00,
2013-09-16 01:32:00,55.0,53.3,29.94,SE,132,0.0,0.0,94,0.00,,OVC046,0.00,0.00,VWS V14.01,2013-09-16 05:32:00,
2013-09-16 01:37:00,54.8,52.8,29.94,SE,132,0.0,0.0,93,0.00,,OVC046,0.00,0.00,VWS V14.01,2013-09-16 05:37:00,
2013-09-16 01:42:00,54.8,52.8,29.94,SE,132,0.0,0.0,93,0.00,,OVC046,0.00,0.00,VWS V14.01,2013-09-16 05:42:00,
2013-09-16 01:47:00,54.7,52.7,29.94,SE,132,0.0,0.0,93,0.00,,OVC044,0.00,0.00,VWS V14.01,2013-09-16 05:47:00,
2013-09-16 01:52:00,54.5,52.5,29.94,SE,132,0.0,0.0,93,0.00,,OVC044,0.00,0.00,VWS V14.01,2013-09-16 05:52:00,
2013-09-16 01:57:00,54.2,52.2,29.94,SE,132,0.0,0.0,93,0.00,,OVC044,0.00,0.00,VWS V14.01,2013-09-16 05:57:00,
2013-09-16 02:00:00,55.1,53.4,29.93,SE,132,0.0,0.0,94,0.00,,OVC041,0.00,0.00,VWS V14.01,2013-09-16 06:00:00,
2013-09-16 02:02:00,54.1,52.1,29.94,SE,132,0.0,0.0,93,0.00,,OVC042,0.00,0.00,VWS V14.01,2013-09-16 06:02:00,
2013-09-16 02:07:00,53.9,51.9,29.94,SE,132,0.0,0.0,93,0.00,,OVC042,0.00,0.00,VWS V14.01,2013-09-16 06:07:00,
2013-09-16 02:12:00,53.9,51.9,29.95,SE,132,0.0,0.0,93,0.00,,OVC042,0.00,0.00,VWS V14.01,2013-09-16 06:12:00,
2013-09-16 02:17:00,53.8,51.8,29.95,SE,132,0.0,0.0,93,0.00,,OVC042,0.00,0.00,VWS V14.01,2013-09-16 06:17:00,
2013-09-16 02:22:00,53.8,51.8,29.95,SE,132,0.0,0.0,93,0.00,,OVC042,0.00,0.00,VWS V14.01,2013-09-16 06:22:00,
2013-09-16 02:27:00,53.8,51.8,29.95,SE,132,0.0,0.0,93,0.00,,OVC042,0.00,0.00,VWS V14.01,2013-09-16 06:27:00,
2013-09-16 02:30:00,54.8,52.8,29.94,SE,132,0.0,0.0,93,0.00,,OVC041,0.00,0.00,VWS V14.01,2013-09-16 06:30:00,
2013-09-16 02:32:00,53.8,51.8,29.95,SE,132,0.0,0.0,93,0.00,,OVC044,0.00,0.00,VWS V14.01,2013-09-16 06:32:00,
2013-09-16 02:37:00,53.9,51.9,29.95,SE,132,0.0,0.0,93,0.00,,OVC044,0.00,0.00,VWS V14.01,2013-09-16 06:37:00,
2013-09-16 02:42:00,53.9,52.2,29.96,SE,132,0.0,0.0,94,0.00,,OVC044,0.00,0.00,VWS V14.01,2013-09-16 06:42:00,
2013-09-16 02:47:00,54.1,52.4,29.96,SE,132,0.0,0.0,94,0.00,,OVC044,0.00,0.00,VWS V14.01,2013-09-16 06:47:00,
2013-09-16 02:52:00,54.1,52.4,29.96,SE,132,0.0,0.0,94,0.00,,OVC044,0.00,0.00,VWS V14.01,2013-09-16 06:52:00,
2013-09-16 02:57:00,54.1,52.4,29.96,SE,132,0.0,0.0,94,0.00,,OVC044,0.00,0.00,VWS V14.01,2013-09-16 06:57:00,
2013-09-16 03:00:00,53.9,51.9,29.95,SE,132,0.0,0.0,93,0.00,,OVC041,0.00,0.00,VWS V14.01,2013-09-16 07:00:00,
2013-09-16 03:02:00,54.1,52.4,29.96,SE,132,0.0,0.0,94,0.00,,OVC044,0.00,0.00,VWS V14.01,2013-09-16 07:02:00,
2013-09-16 03:07:00,54.2,52.5,29.96,SE,132,0.0,0.0,94,0.00,,OVC044,0.00,0.00,VWS V14.01,2013-09-16 07:07:00,
2013-09-16 03:12:00,54.2,52.5,29.96,SE,132,0.0,0.0,94,0.00,,OVC044,0.00,0.00,VWS V14.01,2013-09-16 07:12:00,
2013-09-16 03:17:00,54.2,52.5,29.96,SE,132,0.0,0.0,94,0.00,,OVC044,0.00,0.00,VWS V14.01,2013-09-16 07:17:00,
2013-09-16 03:22:00,54.4,52.7,29.96,SE,132,0.0,0.0,94,0.00,,OVC044,0.00,0.00,VWS V14.01,2013-09-16 07:22:00,
2013-09-16 03:27:00,54.4,52.7,29.96,SE,132,0.0,0.0,94,0.00,,OVC044,0.00,0.00,VWS V14.01,2013-09-16 07:27:00,
2013-09-16 03:30:00,53.9,51.9,29.96,SE,132,0.0,0.0,93,0.00,,OVC041,0.00,0.00,VWS V14.01,2013-09-16 07:30:00,
2013-09-16 03:32:00,54.4,52.7,29.96,SE,132,0.0,0.0,94,0.00,,OVC044,0.00,0.00,VWS V14.01,2013-09-16 07:32:00,
2013-09-16 03:37:00,54.4,52.7,29.96,SE,132,0.0,0.0,94,0.00,,OVC044,0.00,0.00,VWS V14.01,2013-09-16 07:37:00,
2013-09-16 03:42:00,54.4,52.7,29.96,SE,132,0.0,0.0,94,0.00,,OVC044,0.00,0.00,VWS V14.01,2013-09-16 07:42:00,
2013-09-16 03:47:00,54.4,52.7,29.96,SE,132,0.0,0.0,94,0.00,,OVC044,0.00,0.00,VWS V14.01,2013-09-16 07:47:00,
2013-09-16 03:52:00,54.4,52.7,29.96,SE,132,0.0,0.0,94,0.00,,OVC044,0.00,0.00,VWS V14.01,2013-09-16 07:52:00,
2013-09-16 03:57:00,54.4,52.7,29.96,SE,132,0.0,0.0,94,0.00,,OVC044,0.00,0.00,VWS V14.01,2013-09-16 07:57:00,
2013-09-16 04:00:00,54.2,52.5,29.96,SE,132,0.0,0.0,94,0.00,,OVC041,0.00,0.00,VWS V14.01,2013-09-16 08:00:00,
2013-09-16 04:02:00,54.4,52.7,29.96,SE,132,0.0,0.0,94,0.00,,OVC044,0.00,0.00,VWS V14.01,2013-09-16 08:02:00,
2013-09-16 04:07:00,54.4,52.7,29.96,SE,132,0.0,0.0,94,0.00,,OVC044,0.00,0.00,VWS V14.01,2013-09-16 08:07:00,
2013-09-16 04:12:00,54.4,52.7,29.96,SE,132,0.0,0.0,94,0.00,,OVC044,0.00,0.00,VWS V14.01,2013-09-16 08:12:00,
2013-09-16 04:17:00,54.5,52.8,29.96,SE,132,0.0,0.0,94,0.00,,OVC044,0.00,0.00,VWS V14.01,2013-09-16 08:17:00,
2013-09-16 04:22:00,54.5,52.8,29.96,SE,132,0.0,0.0,94,0.00,,OVC044,0.00,0.00,VWS V14.01,2013-09-16 08:22:00,
2013-09-16 04:27:00,54.7,53.0,29.97,SE,132,0.0,0.0,94,0.00,,OVC044,0.00,0.00,VWS V14.01,2013-09-16 08:27:00,
2013-09-16 04:30:00,54.4,52.7,29.96,SE,132,0.0,0.0,94,0.00,,OVC041,0.00,0.00,VWS V14.01,2013-09-16 08:30:00,
2013-09-16 04:32:00,54.7,53.3,29.97,North,355,0.0,0.0,95,0.00,,OVC044,0.00,0.00,VWS V14.01,2013-09-16 08:32:00,
2013-09-16 04:37:00,54.7,53.3,29.97,North,355,0.0,0.0,95,0.00,,OVC044,0.00,0.00,VWS V14.01,2013-09-16 08:37:00,
2013-09-16 04:42:00,54.8,53.4,29.98,West,279,0.0,0.0,95,0.00,,OVC044,0.00,0.00,VWS V14.01,2013-09-16 08:42:00,
2013-09-16 04:47:00,54.8,53.4,29.98,West,279,0.0,0.0,95,0.00,,OVC044,0.00,0.00,VWS V14.01,2013-09-16 08:47:00,
2013-09-16 04:52:00,54.8,53.4,29.98,West,279,0.0,0.0,95,0.00,,OVC044,0.00,0.00,VWS V14.01,2013-09-16 08:52:00,
2013-09-16 04:57:00,54.8,53.4,29.98,WNW,286,0.0,0.0,95,0.00,,OVC044,0.00,0.00,VWS V14.01,2013-09-16 08:57:00,
2013-09-16 05:00:00,54.4,52.7,29.96,SE,132,0.0,0.0,94,0.00,,OVC041,0.00,0.00,VWS V14.01,2013-09-16 09:00:00,
2013-09-16 05:02:00,54.8,53.4,29.98,WNW,286,0.0,0.0,95,0.00,,OVC044,0.00,0.00,VWS V14.01,2013-09-16 09:02:00,
2013-09-16 05:07:00,54.8,53.4,29.98,WNW,286,0.0,0.0,95,0.00,,OVC044,0.00,0.00,VWS V14.01,2013-09-16 09:07:00,
2013-09-16 05:12:00,54.8,53.4,29.99,ENE,74,0.0,0.0,95,0.00,,OVC044,0.00,0.00,VWS V14.01,2013-09-16 09:12:00,
2013-09-16 05:17:00,54.8,53.4,29.99,NNW,333,0.0,0.0,95,0.00,,OVC044,0.00,0.00,VWS V14.01,2013-09-16 09:17:00,
2013-09-16 05:22:00,54.8,53.4,29.99,North,5,0.0,0.0,95,0.00,,OVC044,0.00,0.00,VWS V14.01,2013-09-16 09:22:00,
2013-09-16 05:27:00,54.7,53.3,29.99,North,5,0.0,0.0,95,0.00,,OVC044,0.00,0.00,VWS V14.01,2013-09-16 09:27:00,
2013-09-16 05:30:00,54.8,53.4,29.98,SW,219,0.0,0.0,95,0.00,,OVC041,0.00,0.00,VWS V14.01,2013-09-16 09:30:00,
2013-09-16 05:32:00,54.7,53.3,29.99,SW,225,1.0,0.0,95,0.00,,OVC044,0.00,0.00,VWS V14.01,2013-09-16 09:32:00,
2013-09-16 05:37:00,54.7,53.3,29.99,SW,225,0.0,0.0,95,0.00,,OVC010,0.00,0.00,VWS V14.01,2013-09-16 09:37:00,
2013-09-16 05:42:00,54.7,53.3,30.00,SW,225,0.0,0.0,95,0.00,,OVC010,0.00,0.00,VWS V14.01,2013-09-16 09:42:00,
2013-09-16 05:47:00,54.7,53.3,30.00,SW,226,0.0,0.0,95,0.00,,OVC010,0.00,0.00,VWS V14.01,2013-09-16 09:47:00,
2013-09-16 05:52:00,54.7,53.3,30.00,SW,226,0.0,0.0,95,0.00,,OVC010,0.00,0.00,VWS V14.01,2013-09-16 09:52:00,
2013-09-16 05:57:00,54.7,53.3,30.00,SW,225,0.0,0.0,95,0.00,,OVC010,0.00,0.00,VWS V14.01,2013-09-16 09:57:00,
2013-09-16 06:00:00,54.8,53.4,29.99,ENE,74,0.0,0.0,95,0.00,,OVC041,0.00,0.00,VWS V14.01,2013-09-16 10:00:00,
2013-09-16 06:02:00,54.7,53.3,30.00,SW,225,0.0,0.0,95,0.00,,OVC014,0.00,0.00,VWS V14.01,2013-09-16 10:02:00,
2013-09-16 06:07:00,54.5,53.1,30.00,SW,227,0.0,0.0,95,0.00,,OVC014,0.00,0.00,VWS V14.01,2013-09-16 10:07:00,
2013-09-16 06:12:00,54.5,53.1,30.00,SW,227,0.0,0.0,95,0.00,,OVC014,0.00,0.00,VWS V14.01,2013-09-16 10:12:00,
2013-09-16 06:17:00,54.5,53.1,30.00,SW,227,0.0,0.0,95,0.00,,OVC014,0.00,0.00,VWS V14.01,2013-09-16 10:17:00,
2013-09-16 06:22:00,54.5,53.1,30.00,SW,227,0.0,0.0,95,0.00,,OVC014,0.00,0.00,VWS V14.01,2013-09-16 10:22:00,
2013-09-16 06:27:00,54.5,53.1,30.01,SW,227,0.0,0.0,95,0.00,,OVC014,0.00,0.00,VWS V14.01,2013-09-16 10:27:00,
2013-09-16 06:30:00,54.7,53.3,30.00,SW,226,0.0,0.0,95,0.00,,OVC041,0.00,0.00,VWS V14.01,2013-09-16 10:30:00,
2013-09-16 06:32:00,54.5,53.1,30.01,SW,227,0.0,0.0,95,0.00,,OVC014,0.00,0.00,VWS V14.01,2013-09-16 10:32:00,
2013-09-16 06:37:00,54.5,53.1,30.01,North,360,0.0,0.0,95,0.00,,OVC014,0.00,0.00,VWS V14.01,2013-09-16 10:37:00,
2013-09-16 06:42:00,54.5,53.1,30.01,NNE,17,0.0,0.0,95,0.00,,OVC016,0.00,0.00,VWS V14.01,2013-09-16 10:42:00,
2013-09-16 06:47:00,54.4,53.0,30.01,NNE,17,0.0,0.0,95,0.00,,OVC016,0.00,0.00,VWS V14.01,2013-09-16 10:47:00,
2013-09-16 06:52:00,54.4,53.0,30.01,North,11,0.0,0.0,95,0.00,,OVC016,0.00,0.00,VWS V14.01,2013-09-16 10:52:00,
2013-09-16 06:57:00,54.4,53.0,30.02,North,11,0.0,0.0,95,0.00,,OVC016,0.00,0.00,VWS V14.01,2013-09-16 10:57:00,
2013-09-16 07:00:00,54.5,53.1,30.00,SW,227,0.0,0.0,95,0.00,,OVC041,0.00,0.00,VWS V14.01,2013-09-16 11:00:00,
2013-09-16 07:02:00,54.4,53.0,30.02,NNE,16,0.0,0.0,95,0.00,,OVC016,0.00,0.00,VWS V14.01,2013-09-16 11:02:00,
2013-09-16 07:07:00,54.4,53.0,30.02,NNE,17,0.0,0.0,95,0.00,,OVC016,0.00,0.00,VWS V14.01,2013-09-16 11:07:00,
2013-09-16 07:12:00,54.4,53.0,30.03,NNE,17,0.0,0.0,95,0.00,,OVC014,0.00,0.00,VWS V14.01,2013-09-16 11:12:00,
2013-09-16 07:17:00,54.4,53.0,30.03,NNE,17,0.0,0.0,95,0.00,,OVC014,0.00,0.00,VWS V14.01,2013-09-16 11:17:00,
2013-09-16 07:22:00,54.2,52.8,30.03,NNE,17,0.0,0.0,95,0.00,,OVC014,0.00,0.00,VWS V14.01,2013-09-16 11:22:00,
2013-09-16 07:27:00,54.2,52.8,30.03,NNE,17,0.0,0.0,95,0.00,,OVC014,0.00,0.00,VWS V14.01,2013-09-16 11:27:00,
2013-09-16 07:30:00,54.5,53.1,30.01,NNE,17,0.0,0.0,95,0.00,,OVC041,0.00,0.00,VWS V14.01,2013-09-16 11:30:00,
2013-09-16 07:32:00,54.2,52.8,30.03,NE,38,0.0,0.0,95,0.00,,OVC014,0.00,0.00,VWS V14.01,2013-09-16 11:32:00,
2013-09-16 07:37:00,54.2,52.8,30.03,NE,38,0.0,0.0,95,0.00,,OVC014,0.00,0.00,VWS V14.01,2013-09-16 11:37:00,
2013-09-16 07:42:00,54.2,52.8,30.04,NE,38,0.0,0.0,95,0.00,,OVC014,0.00,5.00,VWS V14.01,2013-09-16 11:42:00,
2013-09-16 07:47:00,54.2,52.8,30.04,NE,38,0.0,0.0,95,0.00,,OVC014,0.00,9.00,VWS V14.01,2013-09-16 11:47:00,
2013-09-16 07:52:00,54.2,52.8,30.04,NE,38,0.0,0.0,95,0.00,,OVC014,0.00,9.00,VWS V14.01,2013-09-16 11:52:00,
2013-09-16 07:57:00,54.2,52.8,30.04,NE,38,0.0,0.0,95,0.00,,OVC014,0.00,16.00,VWS V14.01,2013-09-16 11:57:00,
2013-09-16 08:00:00,54.4,53.0,30.03,NNE,17,0.0,0.0,95,0.00,,OVC041,0.00,0.00,VWS V14.01,2013-09-16 12:00:00,
2013-09-16 08:02:00,54.2,52.8,30.04,NE,38,0.0,0.0,95,0.00,,OVC014,0.00,12.00,VWS V14.01,2013-09-16 12:02:00,
2013-09-16 08:07:00,54.2,52.8,30.04,West,275,0.0,0.0,95,0.00,,OVC014,0.00,16.00,VWS V14.01,2013-09-16 12:07:00,
2013-09-16 08:12:00,54.2,52.8,30.04,NW,306,0.0,0.0,95,0.00,,OVC014,0.00,21.00,VWS V14.01,2013-09-16 12:12:00,
2013-09-16 08:17:00,54.2,52.8,30.04,NW,306,1.0,0.0,95,0.00,,OVC014,0.00,23.00,VWS V14.01,2013-09-16 12:17:00,
2013-09-16 08:22:00,54.2,52.8,30.04,NNW,329,0.0,0.0,95,0.00,,OVC014,0.00,16.00,VWS V14.01,2013-09-16 12:22:00,
2013-09-16 08:27:00,54.2,52.8,30.06,East,84,0.0,0.0,95,0.00,,OVC014,0.00,11.00,VWS V14.01,2013-09-16 12:27:00,
2013-09-16 08:30:00,54.2,52.8,30.04,NE,38,0.0,0.0,95,0.00,,OVC041,0.00,0.00,VWS V14.01,2013-09-16 12:30:00,
2013-09-16 08:32:00,54.2,52.8,30.06,East,84,0.0,0.0,95,0.00,,OVC014,0.00,23.00,VWS V14.01,2013-09-16 12:32:00,
2013-09-16 08:37:00,54.2,52.8,30.06,East,84,0.0,0.0,95,0.00,,OVC014,0.00,26.00,VWS V14.01,2013-09-16 12:37:00,
2013-09-16 08:41:00,54.2,52.8,30.06,SSE,158,0.0,0.0,95,0.00,,OVC014,0.00,19.00,VWS V14.01,2013-09-16 12:41:00,
2013-09-16 08:46:00,54.2,52.8,30.06,SSE,158,0.0,0.0,95,0.00,,OVC014,0.00,21.00,VWS V14.01,2013-09-16 12:46:00,
2013-09-16 08:51:00,54.2,52.8,30.06,NE,52,0.0,0.0,95,0.00,,OVC014,0.00,25.00,VWS V14.01,2013-09-16 12:51:00,
2013-09-16 08:56:00,54.2,52.8,30.07,NE,52,0.0,0.0,95,0.00,,OVC014,0.00,30.00,VWS V14.01,2013-09-16 12:56:00,
2013-09-16 09:00:00,54.2,52.8,30.04,NW,306,1.0,0.0,95,0.00,,OVC041,0.00,18.00,VWS V14.01,2013-09-16 13:00:00,
2013-09-16 09:01:00,54.4,53.0,30.07,NE,52,0.0,0.0,95,0.00,,OVC014,0.00,40.00,VWS V14.01,2013-09-16 13:01:00,
2013-09-16 09:06:00,54.4,53.0,30.07,NE,52,0.0,0.0,95,0.00,,OVC014,0.00,39.00,VWS V14.01,2013-09-16 13:06:00,
2013-09-16 09:11:00,54.4,53.0,30.07,NE,53,0.0,0.0,95,0.00,,OVC014,0.00,56.00,VWS V14.01,2013-09-16 13:11:00,
2013-09-16 09:16:00,54.4,53.0,30.07,WNW,298,0.0,0.0,95,0.00,,OVC014,0.00,83.00,VWS V14.01,2013-09-16 13:16:00,
2013-09-16 09:21:00,54.4,53.0,30.07,WNW,290,0.0,0.0,95,0.00,,OVC014,0.00,79.00,VWS V14.01,2013-09-16 13:21:00,
2013-09-16 09:26:00,54.4,53.0,30.07,North,9,0.0,0.0,95,0.00,,OVC014,0.00,70.00,VWS V14.01,2013-09-16 13:26:00,
2013-09-16 09:30:00,54.2,52.8,30.06,East,84,0.0,0.0,95,0.00,,OVC041,0.00,23.00,VWS V14.01,2013-09-16 13:30:00,
2013-09-16 09:31:00,54.4,52.7,30.07,North,5,2.0,0.0,94,0.00,,OVC014,0.00,67.00,VWS V14.01,2013-09-16 13:31:00,
2013-09-16 09:36:00,54.4,52.7,30.07,North,9,0.0,0.0,94,0.00,,OVC014,0.00,132.00,VWS V14.01,2013-09-16 13:36:00,
2013-09-16 09:41:00,54.4,52.7,30.08,NW,316,0.0,0.0,94,0.00,,OVC014,0.00,135.00,VWS V14.01,2013-09-16 13:41:00,
2013-09-16 09:46:00,54.4,52.7,30.08,WNW,297,0.0,0.0,94,0.00,,OVC014,0.00,139.00,VWS V14.01,2013-09-16 13:46:00,
2013-09-16 09:51:00,54.5,52.8,30.08,NW,323,0.0,0.0,94,0.00,,OVC014,0.00,127.00,VWS V14.01,2013-09-16 13:51:00,
2013-09-16 09:56:00,54.5,52.5,30.09,NE,46,0.0,0.0,93,0.00,,OVC014,0.00,134.00,VWS V14.01,2013-09-16 13:56:00,
2013-09-16 10:00:00,54.4,53.0,30.07,NE,52,0.0,0.0,95,0.00,,OVC041,0.00,39.00,VWS V14.01,2013-09-16 14:00:00,
2013-09-16 10:01:00,54.5,52.5,30.09,NW,306,1.0,0.0,93,0.00,,OVC014,0.00,213.00,VWS V14.01,2013-09-16 14:01:00,
2013-09-16 10:06:00,54.8,52.8,30.09,WSW,256,0.0,0.0,93,0.00,,OVC014,0.00,156.00,VWS V14.01,2013-09-16 14:06:00,
2013-09-16 10:11:00,55.0,53.0,30.09,WNW,294,0.0,0.0,93,0.00,,OVC014,0.00,165.00,VWS V14.01,2013-09-16 14:11:00,
2013-09-16 10:16:00,55.1,52.8,30.09,NW,307,0.0,0.0,92,0.00,,OVC014,0.00,171.00,VWS V14.01,2013-09-16 14:16:00,
2013-09-16 10:21:00,55.3,53.0,30.09,West,275,0.0,0.0,92,0.00,,OVC014,0.00,163.00,VWS V14.01,2013-09-16 14:21:00,
2013-09-16 10:26:00,55.3,52.7,30.10,ENE,74,0.0,0.0,91,0.00,,OVC014,0.00,160.00,VWS V14.01,2013-09-16 14:26:00,
2013-09-16 10:30:00,54.4,52.7,30.08,NNW,333,0.0,0.0,94,0.00,,OVC041,0.00,137.00,VWS V14.01,2013-09-16 14:30:00,
2013-09-16 10:31:00,55.4,52.8,30.10,NW,307,0.0,0.0,91,0.00,,OVC014,0.00,192.00,VWS V14.01,2013-09-16 14:31:00,
2013-09-16 10:36:00,55.7,52.8,30.10,NW,307,0.0,0.0,90,0.00,,OVC014,0.00,230.00,VWS V14.01,2013-09-16 14:36:00,
2013-09-16 10:41:00,55.9,53.0,30.10,WNW,295,1.0,0.0,90,0.00,,OVC014,0.00,239.00,VWS V14.01,2013-09-16 14:41:00,
2013-09-16 10:46:00,56.0,52.8,30.10,SSE,162,0.0,0.0,89,0.00,,OVC014,0.00,301.00,VWS V14.01,2013-09-16 14:46:00,
2013-09-16 10:51:00,56.0,52.2,30.10,South,176,0.0,0.0,87,0.00,,OVC014,0.00,290.00,VWS V14.01,2013-09-16 14:51:00,
2013-09-16 10:56:00,56.7,52.2,30.11,SW,219,0.0,0.0,85,0.00,,OVC014,0.00,434.00,VWS V14.01,2013-09-16 14:56:00,
2013-09-16 11:00:00,54.8,52.8,30.09,WNW,292,0.0,0.0,93,0.00,,OVC041,0.00,141.00,VWS V14.01,2013-09-16 15:00:00,
2013-09-16 11:01:00,57.0,50.6,30.11,SE,144,0.0,0.0,79,0.00,,OVC014,0.00,216.00,VWS V14.01,2013-09-16 15:01:00,
2013-09-16 11:06:00,58.0,52.9,30.11,NW,304,0.0,0.0,83,0.00,,OVC014,0.00,700.00,VWS V14.01,2013-09-16 15:06:00,
2013-09-16 11:11:00,58.3,50.8,30.11,NNW,343,0.0,0.0,76,0.00,,OVC014,0.00,371.00,VWS V14.01,2013-09-16 15:11:00,
2013-09-16 11:16:00,59.9,52.7,30.11,NNW,331,0.0,0.0,77,0.00,,OVC014,0.00,285.00,VWS V14.01,2013-09-16 15:16:00,
2013-09-16 11:21:00,60.2,51.9,30.11,NNW,336,0.0,0.0,74,0.00,,OVC014,0.00,288.00,VWS V14.01,2013-09-16 15:21:00,
2013-09-16 11:26:00,59.5,50.8,30.11,WNW,303,0.0,0.0,73,0.00,,OVC014,0.00,200.00,VWS V14.01,2013-09-16 15:26:00,
2013-09-16 11:30:00,55.7,52.8,30.10,NW,307,0.0,0.0,90,0.00,,OVC041,0.00,246.00,VWS V14.01,2013-09-16 15:30:00,
2013-09-16 11:31:00,59.5,50.8,30.11,SW,217,0.0,0.0,73,0.00,,OVC014,0.00,257.00,VWS V14.01,2013-09-16 15:31:00,
2013-09-16 11:36:00,60.5,51.1,30.11,West,277,0.0,0.0,71,0.00,,OVC014,0.00,216.00,VWS V14.01,2013-09-16 15:36:00,
2013-09-16 11:41:00,60.2,50.4,30.10,ENE,69,0.0,0.0,70,0.00,,OVC014,0.00,258.00,VWS V14.01,2013-09-16 15:41:00,
2013-09-16 11:46:00,59.3,49.5,30.10,ESE,123,0.0,0.0,70,0.01,,OVC014,0.01,223.00,VWS V14.01,2013-09-16 15:46:00,
2013-09-16 11:51:00,59.6,49.8,30.10,NNE,27,0.0,0.0,70,0.01,,OVC014,0.01,156.00,VWS V14.01,2013-09-16 15:51:00,
2013-09-16 11:56:00,58.4,48.7,30.11,NE,45,0.0,0.0,70,0.01,,OVC014,0.01,111.00,VWS V14.01,2013-09-16 15:56:00,
2013-09-16 12:00:00,58.3,51.5,30.11,NE,40,1.0,0.0,78,0.00,,OVC041,0.00,675.00,VWS V14.01,2013-09-16 16:00:00,
2013-09-16 12:01:00,58.1,49.1,30.11,WNW,285,0.0,0.0,72,0.01,,OVC014,0.01,121.00,VWS V14.01,2013-09-16 16:01:00,
2013-09-16 12:06:00,58.4,49.0,30.11,WNW,284,0.0,0.0,71,0.01,,OVC014,0.01,165.00,VWS V14.01,2013-09-16 16:06:00,
2013-09-16 12:11:00,58.4,49.0,30.11,WNW,282,0.0,0.0,71,0.01,,OVC014,0.01,121.00,VWS V14.01,2013-09-16 16:11:00,
2013-09-16 12:16:00,58.3,48.2,30.11,ESE,121,0.0,0.0,69,0.01,,OVC014,0.01,146.00,VWS V14.01,2013-09-16 16:16:00,
2013-09-16 12:21:00,58.7,48.2,30.11,NE,54,1.0,0.0,68,0.01,,OVC014,0.01,288.00,VWS V14.01,2013-09-16 16:21:00,
2013-09-16 12:26:00,59.5,47.7,30.12,South,179,0.0,0.0,65,0.01,,OVC014,0.01,320.00,VWS V14.01,2013-09-16 16:26:00,
2013-09-16 12:30:00,60.5,51.8,30.10,NNE,21,0.0,0.0,73,0.00,,OVC041,0.00,199.00,VWS V14.01,2013-09-16 16:30:00,
2013-09-16 12:31:00,59.8,49.2,30.12,SW,217,0.0,0.0,68,0.01,,OVC014,0.01,318.00,VWS V14.01,2013-09-16 16:31:00,
2013-09-16 12:36:00,60.2,48.4,30.12,North,350,0.0,0.0,65,0.01,,OVC014,0.01,332.00,VWS V14.01,2013-09-16 16:36:00,
2013-09-16 12:41:00,60.4,49.8,30.12,SE,142,0.0,0.0,68,0.01,,OVC014,0.01,271.00,VWS V14.01,2013-09-16 16:41:00,
2013-09-16 12:46:00,59.9,48.5,30.12,WNW,290,0.0,0.0,66,0.01,,OVC014,0.01,255.00,VWS V14.01,2013-09-16 16:46:00,
2013-09-16 12:51:00,60.4,48.2,30.12,WNW,288,0.0,0.0,64,0.01,,OVC014,0.01,308.00,VWS V14.01,2013-09-16 16:51:00,
2013-09-16 12:56:00,61.2,49.8,30.11,NE,46,0.0,0.0,66,0.01,,OVC014,0.01,251.00,VWS V14.01,2013-09-16 16:56:00,
2013-09-16 13:00:00,58.6,50.0,30.11,WNW,284,0.0,0.0,73,0.01,,OVC041,0.01,179.00,VWS V14.01,2013-09-16 17:00:00,
2013-09-16 13:01:00,60.7,49.3,30.11,NNE,19,0.0,0.0,66,0.01,,OVC014,0.01,211.00,VWS V14.01,2013-09-16 17:01:00,
2013-09-16 13:06:00,59.6,48.2,30.11,SE,140,0.0,0.0,66,0.01,,OVC014,0.01,195.00,VWS V14.01,2013-09-16 17:06:00,
2013-09-16 13:11:00,59.8,48.8,30.11,SSW,205,0.0,0.0,67,0.00,,OVC014,0.01,816.00,VWS V14.01,2013-09-16 17:11:00,
2013-09-16 13:16:00,60.4,49.4,30.11,North,11,4.0,0.0,67,0.00,,OVC014,0.01,689.00,VWS V14.01,2013-09-16 17:16:00,
2013-09-16 13:21:00,60.5,48.3,30.11,North,9,0.0,0.0,64,0.00,,OVC014,0.01,141.00,VWS V14.01,2013-09-16 17:21:00,
2013-09-16 13:26:00,60.7,47.6,30.12,NW,310,0.0,0.0,62,0.00,,OVC014,0.01,893.00,VWS V14.01,2013-09-16 17:26:00,
2013-09-16 13:30:00,60.1,48.7,30.12,North,350,0.0,0.0,66,0.01,,OVC041,0.01,352.00,VWS V14.01,2013-09-16 17:30:00,
2013-09-16 13:31:00,61.5,49.2,30.12,North,355,0.0,0.0,64,0.00,,OVC014,0.01,860.00,VWS V14.01,2013-09-16 17:31:00,
2013-09-16 13:36:00,61.3,49.0,30.12,NNE,26,0.0,0.0,64,0.00,,OVC014,0.01,125.00,VWS V14.01,2013-09-16 17:36:00,
2013-09-16 13:41:00,60.5,48.3,30.11,WNW,301,0.0,0.0,64,0.00,,OVC014,0.01,139.00,VWS V14.01,2013-09-16 17:41:00,
2013-09-16 13:46:00,61.6,48.9,30.11,NW,323,1.0,0.0,63,0.00,,OVC014,0.01,786.00,VWS V14.01,2013-09-16 17:46:00,
2013-09-16 13:51:00,61.5,48.4,30.11,ENE,76,0.0,0.0,62,0.00,,OVC014,0.01,803.00,VWS V14.01,2013-09-16 17:51:00,
2013-09-16 13:56:00,61.5,47.5,30.11,NNW,347,0.0,0.0,60,0.00,,OVC014,0.01,821.00,VWS V14.01,2013-09-16 17:56:00,
2013-09-16 14:00:00,59.5,48.5,30.11,SSW,203,0.0,0.0,67,0.01,,OVC041,0.01,195.00,VWS V14.01,2013-09-16 18:00:00,
2013-09-16 14:01:00,62.7,47.7,30.11,NW,326,0.0,0.0,58,0.00,,OVC014,0.01,838.00,VWS V14.01,2013-09-16 18:01:00,
2013-09-16 14:06:00,63.9,50.6,30.11,NNE,16,0.0,0.0,62,0.00,,OVC014,0.01,875.00,VWS V14.01,2013-09-16 18:06:00,
2013-09-16 14:11:00,63.5,48.5,30.11,NNW,329,0.0,0.0,58,0.00,,OVC014,0.01,411.00,VWS V14.01,2013-09-16 18:11:00,
2013-09-16 14:16:00,62.4,48.8,30.11,SW,217,1.0,0.0,61,0.00,,OVC014,0.01,805.00,VWS V14.01,2013-09-16 18:16:00,
2013-09-16 14:21:00,62.6,47.6,30.11,SW,217,0.0,0.0,58,0.00,,OVC014,0.01,807.00,VWS V14.01,2013-09-16 18:21:00,
2013-09-16 14:26:00,63.7,47.7,30.11,NNE,16,0.0,0.0,56,0.00,,OVC014,0.01,817.00,VWS V14.01,2013-09-16 18:26:00,
2013-09-16 14:30:00,60.9,48.2,30.11,WNW,301,1.0,0.0,63,0.00,,OVC041,0.01,139.00,VWS V14.01,2013-09-16 18:30:00,
2013-09-16 14:31:00,64.0,48.0,30.11,NW,309,0.0,0.0,56,0.00,,OVC014,0.01,777.00,VWS V14.01,2013-09-16 18:31:00,
2013-09-16 14:36:00,62.6,48.1,30.11,NW,309,0.0,0.0,59,0.00,,OVC014,0.01,770.00,VWS V14.01,2013-09-16 18:36:00,
2013-09-16 14:41:00,63.1,45.7,30.10,North,360,0.0,0.0,53,0.00,,OVC014,0.01,765.00,VWS V14.01,2013-09-16 18:41:00,
2013-09-16 14:46:00,64.0,48.9,30.10,North,360,0.0,0.0,58,0.00,,OVC014,0.01,773.00,VWS V14.01,2013-09-16 18:46:00,
2013-09-16 14:51:00,65.3,50.6,30.10,North,355,0.0,0.0,59,0.00,,OVC014,0.01,796.00,VWS V14.01,2013-09-16 18:51:00,
2013-09-16 14:56:00,65.2,48.2,30.10,North,360,0.0,0.0,54,0.00,,OVC014,0.01,571.00,VWS V14.01,2013-09-16 18:56:00,
2013-09-16 15:00:00,64.2,50.9,30.11,NNW,334,0.0,0.0,62,0.00,,OVC041,0.01,907.00,VWS V14.01,2013-09-16 19:00:00,
2013-09-16 15:01:00,64.8,47.3,30.10,North,350,0.0,0.0,53,0.00,,OVC014,0.01,821.00,VWS V14.01,2013-09-16 19:01:00,
2013-09-16 15:06:00,64.3,48.8,30.10,NNE,20,0.0,0.0,57,0.00,,OVC014,0.01,751.00,VWS V14.01,2013-09-16 19:06:00,
2013-09-16 15:11:00,65.3,49.2,30.10,ENE,75,1.0,0.0,56,0.00,,OVC014,0.01,744.00,VWS V14.01,2013-09-16 19:11:00,
2013-09-16 15:16:00,64.5,48.0,30.10,ENE,74,0.0,0.0,55,0.00,,OVC014,0.01,731.00,VWS V14.01,2013-09-16 19:16:00,
2013-09-16 15:21:00,65.2,51.0,30.10,North,5,1.0,0.0,60,0.00,,OVC014,0.01,714.00,VWS V14.01,2013-09-16 19:21:00,
2013-09-16 15:26:00,65.0,47.0,30.09,NNE,15,0.0,0.0,52,0.00,,OVC014,0.01,701.00,VWS V14.01,2013-09-16 19:26:00,
2013-09-16 15:30:00,62.6,48.5,30.10,West,263,0.0,0.0,60,0.00,,OVC041,0.01,766.00,VWS V14.01,2013-09-16 19:30:00,
2013-09-16 15:31:00,65.2,48.6,30.09,NNE,23,0.0,0.0,55,0.00,,OVC014,0.01,696.00,VWS V14.01,2013-09-16 19:31:00,
2013-09-16 15:36:00,64.8,50.2,30.09,SSW,199,0.0,0.0,59,0.00,,OVC014,0.01,689.00,VWS V14.01,2013-09-16 19:36:00,
2013-09-16 15:41:00,65.5,49.4,30.09,North,355,0.0,0.0,56,0.00,,OVC014,0.01,679.00,VWS V14.01,2013-09-16 19:41:00,
2013-09-16 15:46:00,65.8,48.2,30.09,West,280,0.0,0.0,53,0.00,,OVC014,0.01,677.00,VWS V14.01,2013-09-16 19:46:00,
2013-09-16 15:51:00,65.8,49.2,30.09,WSW,253,0.0,0.0,55,0.00,,OVC014,0.01,670.00,VWS V14.01,2013-09-16 19:51:00,
2013-09-16 15:56:00,65.5,47.4,30.08,East,88,0.0,0.0,52,0.00,,OVC014,0.01,580.00,VWS V14.01,2013-09-16 19:56:00,
2013-09-16 16:00:00,65.2,49.1,30.10,NNE,33,0.0,0.0,56,0.00,,OVC041,0.01,745.00,VWS V14.01,2013-09-16 20:00:00,
2013-09-16 16:01:00,65.3,48.2,30.08,ENE,59,0.0,0.0,54,0.00,,OVC014,0.01,640.00,VWS V14.01,2013-09-16 20:01:00,
2013-09-16 16:06:00,64.7,49.1,30.08,ENE,60,0.0,0.0,57,0.00,,OVC014,0.01,631.00,VWS V14.01,2013-09-16 20:06:00,
2013-09-16 16:11:00,65.2,47.7,30.08,WNW,284,1.0,0.0,53,0.00,,OVC014,0.01,617.00,VWS V14.01,2013-09-16 20:11:00,
2013-09-16 16:16:00,65.3,47.2,30.08,SE,144,0.0,0.0,52,0.00,,OVC014,0.01,605.00,VWS V14.01,2013-09-16 20:16:00,
2013-09-16 16:21:00,65.2,47.2,30.08,NNW,335,0.0,0.0,52,0.00,,OVC014,0.01,592.00,VWS V14.01,2013-09-16 20:21:00,
2013-09-16 16:26:00,64.5,47.0,30.08,NNE,32,0.0,0.0,53,0.00,,OVC014,0.01,580.00,VWS V14.01,2013-09-16 20:26:00,
2013-09-16 16:30:00,64.7,48.7,30.09,SSW,199,0.0,0.0,56,0.00,,OVC041,0.01,686.00,VWS V14.01,2013-09-16 20:30:00,
2013-09-16 16:31:00,64.0,47.0,30.08,NNE,32,0.0,0.0,54,0.00,,OVC014,0.01,568.00,VWS V14.01,2013-09-16 20:31:00,
2013-09-16 16:36:00,64.2,46.7,30.08,SE,142,0.0,0.0,53,0.00,,OVC014,0.01,555.00,VWS V14.01,2013-09-16 20:36:00,
2013-09-16 16:41:00,64.2,47.7,30.08,SE,142,0.0,0.0,55,0.00,,OVC014,0.01,541.00,VWS V14.01,2013-09-16 20:41:00,
2013-09-16 16:46:00,64.5,47.0,30.08,North,351,0.0,0.0,53,0.00,,OVC014,0.01,529.00,VWS V14.01,2013-09-16 20:46:00,
2013-09-16 16:51:00,64.5,47.0,30.08,NE,34,0.0,0.0,53,0.00,,OVC014,0.01,515.00,VWS V14.01,2013-09-16 20:51:00,
2013-09-16 16:56:00,64.3,46.3,30.07,ESE,110,0.0,0.0,52,0.00,,OVC014,0.01,504.00,VWS V14.01,2013-09-16 20:56:00,
2013-09-16 17:00:00,65.0,48.9,30.08,ENE,60,0.0,0.0,56,0.00,,OVC041,0.01,626.00,VWS V14.01,2013-09-16 21:00:00,
2013-09-16 17:01:00,64.8,47.3,30.07,NW,323,0.0,0.0,53,0.00,,OVC014,0.01,483.00,VWS V14.01,2013-09-16 21:01:00,
2013-09-16 17:06:00,64.5,46.5,30.07,NW,311,0.0,0.0,52,0.00,,OVC014,0.01,47.00,VWS V14.01,2013-09-16 21:06:00,
2013-09-16 17:11:00,64.0,46.5,30.07,NNW,337,0.0,0.0,53,0.00,,OVC014,0.01,97.00,VWS V14.01,2013-09-16 21:11:00,
2013-09-16 17:16:00,63.9,46.5,30.07,South,173,0.0,0.0,53,0.00,,OVC014,0.01,37.00,VWS V14.01,2013-09-16 21:16:00,
2013-09-16 17:21:00,63.7,46.3,30.07,South,172,0.0,0.0,53,0.00,,OVC014,0.01,79.00,VWS V14.01,2013-09-16 21:21:00,
2013-09-16 17:26:00,63.7,46.3,30.08,NW,310,0.0,0.0,53,0.00,,OVC014,0.01,107.00,VWS V14.01,2013-09-16 21:26:00,
2013-09-16 17:30:00,64.2,46.2,30.08,SE,142,0.0,0.0,52,0.00,,OVC041,0.01,548.00,VWS V14.01,2013-09-16 21:30:00,
2013-09-16 17:31:00,63.4,47.0,30.08,NNW,336,0.0,0.0,55,0.00,,OVC014,0.01,44.00,VWS V14.01,2013-09-16 21:31:00,
2013-09-16 17:35:00,63.4,46.5,30.08,NE,34,0.0,0.0,54,0.00,,OVC014,0.01,49.00,VWS V14.01,2013-09-16 21:35:00,
2013-09-16 17:40:00,63.2,46.3,30.07,NE,36,0.0,0.0,54,0.00,,OVC014,0.01,67.00,VWS V14.01,2013-09-16 21:40:00,
2013-09-16 17:45:00,63.1,46.2,30.07,West,271,0.0,0.0,54,0.00,,OVC014,0.01,30.00,VWS V14.01,2013-09-16 21:45:00,
2013-09-16 17:50:00,63.1,47.2,30.07,SE,143,3.0,0.0,56,0.00,,OVC014,0.01,28.00,VWS V14.01,2013-09-16 21:50:00,
2013-09-16 17:55:00,62.9,46.5,30.07,WNW,295,0.0,0.0,55,0.00,,OVC014,0.01,26.00,VWS V14.01,2013-09-16 21:55:00,
2013-09-16 18:00:00,62.9,47.0,30.07,SSW,211,0.0,0.0,56,0.00,,OVC014,0.01,26.00,VWS V14.01,2013-09-16 22:00:00,
2013-09-16 18:05:00,62.7,46.8,30.07,SSW,211,0.0,0.0,56,0.00,,OVC014,0.01,25.00,VWS V14.01,2013-09-16 22:05:00,
2013-09-16 18:10:00,62.7,46.3,30.07,SE,127,0.0,0.0,55,0.00,,OVC014,0.01,25.00,VWS V14.01,2013-09-16 22:10:00,
2013-09-16 18:15:00,62.6,46.2,30.07,ENE,66,0.0,0.0,55,0.00,,OVC014,0.01,23.00,VWS V14.01,2013-09-16 22:15:00,
2013-09-16 18:20:00,62.7,46.3,30.07,SSE,150,0.0,0.0,55,0.00,,OVC014,0.01,23.00,VWS V14.01,2013-09-16 22:20:00,
2013-09-16 18:25:00,62.3,47.8,30.07,NNW,332,0.0,0.0,59,0.00,,OVC014,0.01,21.00,VWS V14.01,2013-09-16 22:25:00,
2013-09-16 18:30:00,61.8,46.9,30.07,WNW,300,0.0,0.0,58,0.00,,OVC014,0.01,19.00,VWS V14.01,2013-09-16 22:30:00,
2013-09-16 18:35:00,61.8,46.0,30.07,WNW,286,0.0,0.0,56,0.00,,OVC014,0.01,19.00,VWS V14.01,2013-09-16 22:35:00,
2013-09-16 18:40:00,61.6,46.7,30.07,WNW,286,0.0,0.0,58,0.00,,OVC014,0.01,18.00,VWS V14.01,2013-09-16 22:40:00,
2013-09-16 18:45:00,61.5,46.6,30.07,WNW,286,0.0,0.0,58,0.00,,OVC014,0.01,16.00,VWS V14.01,2013-09-16 22:45:00,
2013-09-16 18:50:00,61.3,46.9,30.07,SE,136,0.0,0.0,59,0.00,,OVC014,0.01,16.00,VWS V14.01,2013-09-16 22:50:00,
2013-09-16 18:55:00,60.9,46.9,30.08,WSW,251,0.0,0.0,60,0.00,,OVC014,0.01,14.00,VWS V14.01,2013-09-16 22:55:00,
2013-09-16 19:00:00,61.0,47.0,30.08,WSW,251,0.0,0.0,60,0.00,,OVC014,0.01,14.00,VWS V14.01,2013-09-16 23:00:00,
2013-09-16 19:05:00,60.9,46.5,30.08,WSW,251,0.0,0.0,59,0.00,,OVC014,0.01,12.00,VWS V14.01,2013-09-16 23:05:00,
2013-09-16 19:10:00,60.7,46.3,30.08,WSW,251,0.0,0.0,59,0.00,,OVC014,0.01,12.00,VWS V14.01,2013-09-16 23:10:00,
2013-09-16 19:15:00,60.4,46.9,30.08,WSW,251,0.0,0.0,61,0.00,,OVC014,0.01,11.00,VWS V14.01,2013-09-16 23:15:00,
2013-09-16 19:20:00,60.2,46.7,30.08,WNW,290,0.0,0.0,61,0.00,,OVC014,0.01,11.00,VWS V14.01,2013-09-16 23:20:00,
2013-09-16 19:25:00,60.1,47.0,30.09,NNW,328,0.0,0.0,62,0.00,,OVC014,0.01,9.00,VWS V14.01,2013-09-16 23:25:00,
2013-09-16 19:30:00,59.8,47.2,30.09,NNW,328,0.0,0.0,63,0.00,,OVC014,0.01,7.00,VWS V14.01,2013-09-16 23:30:00,
2013-09-16 19:35:00,59.5,47.7,30.09,NNW,328,0.0,0.0,65,0.00,,OVC014,0.01,7.00,VWS V14.01,2013-09-16 23:35:00,
2013-09-16 19:40:00,59.0,47.3,30.09,NNW,328,0.0,0.0,65,0.00,,OVC014,0.01,5.00,VWS V14.01,2013-09-16 23:40:00,
2013-09-16 19:45:00,58.6,47.3,30.09,NNW,328,0.0,0.0,66,0.00,,OVC014,0.01,5.00,VWS V14.01,2013-09-16 23:45:00,
2013-09-16 19:50:00,58.0,47.5,30.09,NNW,328,0.0,0.0,68,0.00,,OVC014,0.01,0.00,VWS V14.01,2013-09-16 23:50:00,
2013-09-16 19:55:00,57.5,47.4,30.09,NNW,328,0.0,0.0,69,0.00,,OVC014,0.01,0.00,VWS V14.01,2013-09-16 23:55:00,
2013-09-16 20:00:00,57.5,47.0,30.09,NNW,328,0.0,0.0,68,0.00,,OVC014,0.01,0.00,VWS V14.01,2013-09-17 00:00:00,
2013-09-16 20:05:00,57.2,46.8,30.09,NNW,328,0.0,0.0,68,0.00,,OVC014,0.01,0.00,VWS V14.01,2013-09-17 00:05:00,
2013-09-16 20:10:00,56.6,46.9,30.09,NNW,328,0.0,0.0,70,0.00,,OVC014,0.01,0.00,VWS V14.01,2013-09-17 00:10:00,
2013-09-16 20:15:00,55.9,47.0,30.09,NNW,328,0.0,0.0,72,0.00,,OVC014,0.01,0.00,VWS V14.01,2013-09-17 00:15:00,
2013-09-16 20:20:00,55.4,46.9,30.09,NNW,328,0.0,0.0,73,0.00,,OVC014,0.01,0.00,VWS V14.01,2013-09-17 00:20:00,
2013-09-16 20:25:00,55.4,46.9,30.09,NNW,328,0.0,0.0,73,0.00,,OVC014,0.01,0.00,VWS V14.01,2013-09-17 00:25:00,
2013-09-16 20:30:00,55.4,46.9,30.09,NNW,328,0.0,0.0,73,0.00,,OVC014,0.01,0.00,VWS V14.01,2013-09-17 00:30:00,
2013-09-16 20:35:00,55.4,46.9,30.09,NNW,328,0.0,0.0,73,0.00,,OVC014,0.01,0.00,VWS V14.01,2013-09-17 00:35:00,
2013-09-16 20:40:00,55.4,46.9,30.09,NNE,15,0.0,0.0,73,0.00,,OVC014,0.01,0.00,VWS V14.01,2013-09-17 00:40:00,
2013-09-16 20:45:00,55.4,46.9,30.09,ESE,106,0.0,0.0,73,0.00,,OVC014,0.01,0.00,VWS V14.01,2013-09-17 00:45:00,
2013-09-16 20:50:00,55.4,46.9,30.09,ESE,106,0.0,0.0,73,0.00,,OVC014,0.01,0.00,VWS V14.01,2013-09-17 00:50:00,
2013-09-16 20:55:00,55.4,46.9,30.10,SSE,150,0.0,0.0,73,0.00,,OVC014,0.01,0.00,VWS V14.01,2013-09-17 00:55:00,
2013-09-16 21:00:00,55.4,46.9,30.10,SSE,150,0.0,0.0,73,0.00,,OVC014,0.01,0.00,VWS V14.01,2013-09-17 01:00:00,
2013-09-16 21:05:00,55.3,47.2,30.10,South,184,0.0,0.0,74,0.00,,OVC014,0.01,0.00,VWS V14.01,2013-09-17 01:05:00,
2013-09-16 21:10:00,55.3,47.2,30.11,SE,140,0.0,0.0,74,0.00,,OVC014,0.01,0.00,VWS V14.01,2013-09-17 01:10:00,
2013-09-16 21:15:00,55.1,47.0,30.11,SE,142,0.0,0.0,74,0.00,,OVC014,0.01,0.00,VWS V14.01,2013-09-17 01:15:00,
2013-09-16 21:20:00,55.1,47.0,30.11,SE,142,0.0,0.0,74,0.00,,OVC014,0.01,0.00,VWS V14.01,2013-09-17 01:20:00,
2013-09-16 21:25:00,55.0,46.9,30.11,SE,143,0.0,0.0,74,0.00,,OVC014,0.01,0.00,VWS V14.01,2013-09-17 01:25:00,
2013-09-16 21:30:00,54.8,46.7,30.11,SE,143,0.0,0.0,74,0.00,,OVC014,0.01,0.00,VWS V14.01,2013-09-17 01:30:00,
2013-09-16 21:35:00,54.8,46.7,30.11,NNE,33,0.0,0.0,74,0.00,,OVC014,0.01,0.00,VWS V14.01,2013-09-17 01:35:00,
2013-09-16 21:40:00,54.7,46.6,30.11,NNE,22,0.0,0.0,74,0.00,,OVC014,0.01,0.00,VWS V14.01,2013-09-17 01:40:00,
2013-09-16 21:45:00,54.5,46.4,30.11,NNE,22,0.0,0.0,74,0.00,,OVC014,0.01,0.00,VWS V14.01,2013-09-17 01:45:00,
2013-09-16 21:50:00,54.4,46.3,30.11,NNE,22,0.0,0.0,74,0.00,,OVC014,0.01,0.00,VWS V14.01,2013-09-17 01:50:00,
2013-09-16 21:55:00,54.2,46.1,30.11,SE,144,0.0,0.0,74,0.00,,OVC014,0.01,0.00,VWS V14.01,2013-09-17 01:55:00,
2013-09-16 22:00:00,54.1,46.4,30.11,SE,145,0.0,0.0,75,0.00,,OVC014,0.01,0.00,VWS V14.01,2013-09-17 02:00:00,
2013-09-16 22:05:00,54.1,46.4,30.11,SE,145,0.0,0.0,75,0.00,,OVC014,0.01,0.00,VWS V14.01,2013-09-17 02:05:00,
2013-09-16 22:10:00,53.8,46.1,30.11,SE,145,0.0,0.0,75,0.00,,OVC014,0.01,0.00,VWS V14.01,2013-09-17 02:10:00,
2013-09-16 22:15:00,53.8,46.1,30.11,SE,144,0.0,0.0,75,0.00,,OVC014,0.01,0.00,VWS V14.01,2013-09-17 02:15:00,
2013-09-16 22:20:00,53.6,45.9,30.11,SE,145,0.0,0.0,75,0.00,,OVC014,0.01,0.00,VWS V14.01,2013-09-17 02:20:00,
2013-09-16 22:25:00,53.5,45.8,30.11,SE,145,0.0,0.0,75,0.00,,OVC014,0.01,0.00,VWS V14.01,2013-09-17 02:25:00,
2013-09-16 22:30:00,53.2,45.5,30.11,SE,145,0.0,0.0,75,0.00,,OVC014,0.01,0.00,VWS V14.01,2013-09-17 02:30:00,
2013-09-16 22:35:00,53.1,45.4,30.11,SE,145,0.0,0.0,75,0.00,,OVC014,0.01,0.00,VWS V14.01,2013-09-17 02:35:00,
2013-09-16 22:40:00,52.9,45.5,30.11,SE,145,0.0,0.0,76,0.00,,OVC014,0.01,0.00,VWS V14.01,2013-09-17 02:40:00,
2013-09-16 22:45:00,52.8,45.5,30.11,SE,144,0.0,0.0,76,0.00,,OVC014,0.01,0.00,VWS V14.01,2013-09-17 02:45:00,
2013-09-16 22:50:00,52.6,45.3,30.11,SE,144,0.0,0.0,76,0.00,,OVC014,0.01,0.00,VWS V14.01,2013-09-17 02:50:00,
2013-09-16 22:55:00,52.5,45.5,30.11,SE,144,0.0,0.0,77,0.00,,OVC014,0.01,0.00,VWS V14.01,2013-09-17 02:55:00,
2013-09-16 23:00:00,52.2,45.2,30.11,SE,144,0.0,0.0,77,0.00,,OVC014,0.01,0.00,VWS V14.01,2013-09-17 03:00:00,
2013-09-16 23:05:00,52.0,45.0,30.11,SE,144,0.0,0.0,77,0.00,,OVC014,0.01,0.00,VWS V14.01,2013-09-17 03:05:00,
2013-09-16 23:10:00,51.9,44.9,30.12,SE,144,0.0,0.0,77,0.00,,OVC014,0.01,0.00,VWS V14.01,2013-09-17 03:10:00,
2013-09-16 23:15:00,51.6,44.6,30.12,SE,144,0.0,0.0,77,0.00,,OVC014,0.01,0.00,VWS V14.01,2013-09-17 03:15:00,
2013-09-16 23:20:00,51.4,44.4,30.12,SE,144,0.0,0.0,77,0.00,,OVC014,0.01,0.00,VWS V14.01,2013-09-17 03:20:00,
2013-09-16 23:25:00,51.3,44.3,30.12,SE,144,0.0,0.0,77,0.00,,OVC014,0.01,0.00,VWS V14.01,2013-09-17 03:25:00,
2013-09-16 23:30:00,51.0,44.4,30.12,SE,144,0.0,0.0,78,0.00,,CLR,0.01,0.00,VWS V14.01,2013-09-17 03:30:00,
2013-09-16 23:35:00,50.8,44.2,30.12,SE,144,0.0,0.0,78,0.00,,CLR,0.01,0.00,VWS V14.01,2013-09-17 03:35:00,
2013-09-16 23:40:00,50.5,43.9,30.12,SE,144,0.0,0.0,78,0.00,,CLR,0.01,0.00,VWS V14.01,2013-09-17 03:40:00,
2013-09-16 23:45:00,50.4,44.1,30.12,SE,144,0.0,0.0,79,0.00,,CLR,0.01,0.00,VWS V14.01,2013-09-17 03:45:00,
2013-09-16 23:50:00,50.1,43.8,30.12,SE,144,0.0,0.0,79,0.00,,CLR,0.01,0.00,VWS V14.01,2013-09-17 03:50:00,
2013-09-16 23:55:00,49.8,43.6,30.13,SE,144,0.0,0.0,79,0.00,,CLR,0.01,0.00,VWS V14.01,2013-09-17 03:55:00,